DW1341 Weather Reports


time (UTC)temp
C
wind
direction
speed
KPH
gust
KPH
rain 1hr
cm
rain 24hr
cm
rain mn
cm
humidity
%
barometer
mb
20260503181003 23 0 0.0 0.0 0.00 0.00 0.00 48 1011.8
20260503180003 23 0 0.0 0.0 0.00 0.00 0.00 47 1011.8
20260503175003 23 0 0.0 0.0 0.00 0.00 0.00 49 1011.8
20260503174003 23 0 0.0 0.0 0.00 0.00 0.00 48 1011.9
20260503173003 22 0 0.0 0.0 0.00 0.00 0.00 52 1012.2
20260503172003 22 0 0.0 0.0 0.00 0.00 0.00 49 1012.3
20260503171003 22 0 0.0 0.0 0.00 0.00 0.00 51 1012.4
20260503151003 11 0 0.0 0.0 0.00 0.00 0.00 89 1012.9
20260503131003 9 0 0.0 0.0 0.00 0.00 0.00 85 1012.9
20260503081003 12 0 0.0 0.0 0.00 0.00 0.00 80 1012.3
20260503072003 13 0 0.0 0.0 0.00 0.00 0.00 79 1012.2
20260503071003 13 0 0.0 0.0 0.00 0.00 0.00 78 1012.2
20260503055003 15 0 0.0 0.0 0.00 0.00 0.00 75 1011.9
20260503054003 15 0 0.0 0.0 0.00 0.00 0.00 74 1011.8
20260503053003 16 0 0.0 0.0 0.00 0.00 0.00 73 1011.8
20260503052003 16 0 0.0 0.0 0.00 0.00 0.00 73 1011.9
20260503051003 16 0 0.0 0.0 0.00 0.00 0.00 72 1011.9
20260503050004 17 0 0.0 0.0 0.00 0.00 0.00 67 1011.8
20260503045003 17 0 0.0 0.0 0.00 0.00 0.00 67 1011.8
20260503044003 17 0 0.0 0.0 0.00 0.00 0.00 66 1011.7
20260503043024 18 0 0.0 0.0 0.00 0.00 0.00 65 1011.6
20260503042003 18 0 0.0 0.0 0.00 0.00 0.00 64 1011.6
20260503041003 20 0 0.0 0.0 0.00 0.00 0.00 62 1011.5
20260503040024 20 0 0.0 0.0 0.00 0.00 0.00 59 1011.4
20260503035003 21 0 0.0 0.0 0.00 0.00 0.00 57 1011.3
20260503034003 21 0 0.0 0.0 0.00 0.00 0.00 56 1011.1
20260503033003 22 0 0.0 0.0 0.00 0.00 0.00 55 1011.0
20260503032003 22 0 0.0 0.0 0.00 0.00 0.00 53 1010.9
20260503031003 23 0 0.0 0.0 0.00 0.00 0.00 54 1011.0
20260503030003 23 0 0.0 0.0 0.00 0.00 0.00 53 1010.9
20260503025003 24 0 0.0 0.0 0.00 0.00 0.00 50 1010.8
20260503024003 25 0 0.0 0.0 0.00 0.00 0.00 45 1010.8
20260503023003 25 0 0.0 0.0 0.00 0.00 0.00 42 1010.8
20260503022003 26 0 0.0 0.0 0.00 0.00 0.00 39 1010.9
20260503021024 26 0 0.0 0.0 0.00 0.00 0.00 40 1010.8
20260503020003 26 0 0.0 0.0 0.00 0.00 0.00 39 1010.8
20260503015003 26 0 0.0 0.0 0.00 0.00 0.00 40 1010.9
20260503014003 26 0 0.0 0.0 0.00 0.00 0.00 40 1010.9
20260503013003 26 0 0.0 0.0 0.00 0.00 0.00 40 1011.1
20260503012003 26 0 0.0 0.0 0.00 0.00 0.00 41 1011.2
20260503011003 26 0 0.0 0.0 0.00 0.00 0.00 42 1011.1
20260503010003 26 0 0.0 0.0 0.00 0.00 0.00 41 1011.1
20260503005003 26 0 0.0 0.0 0.00 0.00 0.00 41 1011.1
20260503004003 26 0 0.0 0.0 0.00 0.00 0.00 40 1011.3
20260503003003 26 0 0.0 0.0 0.00 0.00 0.00 40 1011.4
20260503002003 26 0 0.0 0.0 0.00 0.00 0.00 41 1011.4
20260503001003 26 0 0.0 0.0 0.00 0.00 0.00 43 1011.4
20260503000003 26 0 0.0 0.0 0.00 0.00 0.00 45 1011.6
20260502235003 26 0 0.0 0.0 0.00 0.00 0.00 44 1011.6
20260502234003 26 0 0.0 0.0 0.00 0.00 0.00 44 1011.8
20260502233003 26 0 0.0 0.0 0.00 0.00 0.00 48 1011.9
20260502232003 26 0 0.0 0.0 0.00 0.00 0.00 44 1012.0
20260502231003 26 0 0.0 0.0 0.00 0.00 0.00 45 1012.1
20260502230003 26 0 0.0 0.0 0.00 0.00 0.00 47 1012.1
20260502225003 26 0 0.0 0.0 0.00 0.00 0.00 47 1012.2
20260502224003 25 0 0.0 0.0 0.00 0.00 0.00 46 1012.4
20260502223003 25 0 0.0 0.0 0.00 0.00 0.00 48 1012.6
20260502222024 26 0 0.0 0.0 0.00 0.00 0.00 47 1012.8
20260502221003 25 0 0.0 0.0 0.00 0.00 0.00 49 1012.8
20260502220003 26 0 0.0 0.0 0.00 0.00 0.00 48 1012.9
20260502215003 25 0 0.0 0.0 0.00 0.00 0.00 50 1013.0
20260502214003 25 0 0.0 0.0 0.00 0.00 0.00 50 1013.1
20260502213003 25 0 0.0 0.0 0.00 0.00 0.00 51 1013.3
20260502212004 25 0 0.0 0.0 0.00 0.00 0.00 52 1013.4
20260502211003 25 0 0.0 0.0 0.00 0.00 0.00 51 1013.4
20260502210003 25 0 0.0 0.0 0.00 0.00 0.00 54 1013.7
20260502205003 24 0 0.0 0.0 0.00 0.00 0.00 55 1013.6
20260502204003 25 0 0.0 0.0 0.00 0.00 0.00 57 1013.7
20260502203024 25 0 0.0 0.0 0.00 0.00 0.00 54 1013.8
20260502202003 24 0 0.0 0.0 0.00 0.00 0.00 53 1013.9
20260502201003 24 0 0.0 0.0 0.00 0.00 0.00 53 1014.1
20260502200003 23 0 0.0 0.0 0.00 0.00 0.00 57 1014.2
20260502195003 23 0 0.0 0.0 0.00 0.00 0.00 54 1014.2
20260502194003 23 0 0.0 0.0 0.00 0.00 0.00 57 1014.3
20260502193003 22 0 0.0 0.0 0.00 0.00 0.00 54 1014.2
20260502192003 22 0 0.0 0.0 0.00 0.00 0.00 57 1014.3
20260502191003 22 0 0.0 0.0 0.00 0.00 0.00 58 1014.4
20260502190004 22 0 0.0 0.0 0.00 0.00 0.00 57 1014.6
20260502185003 22 0 0.0 0.0 0.00 0.00 0.00 58 1014.8
20260502184003 21 0 0.0 0.0 0.00 0.00 0.00 60 1014.9
20260502183003 21 0 0.0 0.0 0.00 0.00 0.00 61 1014.9
20260502182003 21 0 0.0 0.0 0.00 0.00 0.00 65 1015.0